sat.trackr.live / text

‹ back to catalog

STARLINK-4076

NORAD 52667 · 2022-053M

PAYLOAD ACTIVE UNKNOWN

§ Identity

Operator
Country
US
Launch date
2022-05-18
Launch site
AFETR
Launch vehicle
Mass (kg)
RCS (m²)

Purposes: comms

External: N2YO · Heavens-Above · Gunter

§ Orbital elements

Epoch: 2026-05-25T02:22:46.661088Z

Period
95.44 min
Inclination
53.2130°
Eccentricity
0.0001109
Mean motion
15.08836302 rev/d
Perigee alt
539.0 km
Apogee alt
540.5 km
Semi-major
6,917.9 km
B*
-2.8609e-5
RAAN
171.1042°
Arg perigee
71.6596°
Mean anomaly
288.4517°
Rev number
22,258

§ Raw data

STARLINK-40761 52667U 22053M   26145.09915117 -.00000743  00000+0 -28609-4 0  99932 52667  53.2130 171.1042 0001109  71.6596 288.4517 15.08836302222583

JSON: /api/v1/satellites/52667 · /tle

For live sub-satellite position, see the globe view (requires WebGL).

§ Visibility from observer

Set your observer location to see the next 7 days of passes ≥ 10°. The values pass through the URL so the page stays shareable.

No JS? Fill the form by hand. The geolocation button needs JavaScript.